Flag for Norway Weather past 2 weeks in Sarpsborg, Norway

Now
63 °F

Passing clouds.


Feels Like: 63 °F
Forecast: 45 / 62 °F
Wind: 5 mph from Northwest

Location: Rygge


UV Index: 0 (Low)

Visibility: N/A


Pressure: 30.15 "Hg

Humidity: 45%

Dew point: 41 °F

Location of SarpsborgLocation

Historic Weather in Sarpsborg

°F

Sarpsborg temperature yesterday

Maximum temperature yesterday: 55 °F (at 12:50 PM)
Minimum temperature yesterday: 32 °F (at 2:50 AM)
Average temperature yesterday: 45 °F

Past Weeks' High & Low Weather Summary

 TemperatureHumidityPressure
High63 °F (Apr 20, 1:20 PM)100% (Apr 5, 5:50 PM)30.33 "Hg (Apr 5, 5:50 PM)
Low30 °F (Apr 16, 2:20 AM)26% (Apr 15, 3:50 PM)29.39 "Hg (Apr 13, 4:50 AM)
Average43 °F79%29.87 "Hg
* Reported Apr 5 5:20 PM — Apr 20 5:50 PM, Sarpsborg, Weather by CustomWeather, © 2014

Note: Actual official high and low records may vary slightly from our data, if they occured in-between our weather recording intervals... More about our weather records

Advertising

Historic Weather Conditions — Data for Previous 24 hours

 ConditionsComfort  
Time TempWeatherWind HumidityBarometerVisibility
5:50 PM
Apr 20
63 °FPassing clouds.6 mph45%30.15 "HgN/A
5:20 PM63 °FPassing clouds.6 mph42%30.15 "HgN/A
4:50 PM63 °FPassing clouds.5 mph42%30.15 "HgN/A
4:20 PM63 °FSunny.5 mph42%30.18 "Hg10 mi
3:50 PM63 °FSunny.7 mph42%30.18 "Hg10 mi
3:20 PM61 °FPassing clouds.7 mph48%30.18 "HgN/A
2:50 PM63 °FPassing clouds.10 mph49%30.18 "HgN/A
2:20 PM63 °FSunny.8 mph49%30.18 "Hg10 mi
1:50 PM63 °FPassing clouds.6 mph49%30.18 "HgN/A
1:20 PM63 °FPartly sunny.5 mph49%30.21 "HgN/A
12:50 PM61 °FSunny.2 mph52%30.21 "Hg10 mi
12:20 PM61 °FSunny.2 mph52%30.21 "Hg10 mi
11:50 AM59 °FSunny.3 mph55%30.21 "Hg10 mi
11:20 AM57 °FPassing clouds.3 mph59%30.21 "HgN/A
10:50 AM55 °FPassing clouds.3 mph59%30.24 "HgN/A
10:20 AM52 °FPassing clouds.3 mph67%30.24 "HgN/A
9:50 AM48 °FPassing clouds.5 mph76%30.24 "HgN/A
9:20 AM46 °FSunny.6 mph76%30.24 "Hg10 mi
8:50 AM43 °FSunny.7 mph87%30.24 "Hg10 mi
8:20 AM39 °FSunny.5 mph93%30.24 "Hg10 mi
7:50 AM37 °FSunny.5 mph93%30.24 "Hg10 mi
7:20 AM34 °FSunny.3 mph100%30.24 "Hg10 mi
6:50 AM34 °FSunny.2 mph93%30.24 "Hg10 mi
6:20 AM32 °FClear.3 mph100%30.24 "Hg10 mi
5:50 AM32 °FIce fog.2 mph100%30.24 "Hg1 mi
5:20 AM34 °FChilly.3 mph100%30.24 "Hg5 mi
4:50 AM34 °FChilly.1 mph100%30.24 "HgN/A
4:20 AM34 °FChilly.1 mph100%30.24 "Hg6 mi
3:50 AM34 °FChilly.3 mph100%30.24 "Hg5 mi
3:20 AM34 °FChilly.6 mph100%30.24 "HgN/A
2:50 AM36 °FChilly.2 mph93%30.24 "Hg1 mi
2:20 AM36 °FChilly.2 mph100%30.24 "Hg6 mi
1:50 AM36 °FChilly.3 mph100%30.24 "Hg6 mi
1:20 AM37 °FChilly.3 mph93%30.24 "HgN/A
12:50 AM37 °FChilly.5 mph100%30.24 "HgN/A
12:20 AM37 °FChilly.3 mph100%30.24 "HgN/A
10:20 PM
Apr 19
43 °FClear.5 mph87%30.24 "Hg10 mi
9:50 PM45 °FClear.5 mph81%30.24 "Hg10 mi
9:20 PM45 °FSunny.5 mph81%30.24 "Hg10 mi
8:50 PM46 °FPassing clouds.6 mph76%30.24 "HgN/A
8:20 PM48 °FSunny.7 mph76%30.24 "Hg10 mi
7:50 PM50 °FSunny.9 mph71%30.24 "Hg10 mi
7:20 PM50 °FSunny.12 mph67%30.24 "Hg10 mi
6:50 PM52 °FSunny.12 mph67%30.24 "Hg10 mi
6:20 PM52 °FSunny.12 mph67%30.24 "Hg10 mi
Weather by CustomWeather, © 2014

See weather overview